Powrót do katalogu

YAMAL 102

AktywnyŁącznośćGEO
NORAD 25897·PAYLOAD·🇷🇺 Russia

Wystrzelony Sep 6, 1999 z Baikonur Cosmodrome

Loading…

TLE

ŚwieżeSource: Space-Track

Epoka: Sep 14, 2026, 11:22 UTC

1 25897U 99047B   26257.47378241 -.00000089  00000-0  00000-0 0  9996
2 25897  13.7620  12.0178 0001072   2.2967 321.7745  1.00001027 98880

Śledź YAMAL 102 w czasie rzeczywistym z AllMySat

Download on the App Store